www.pogodaiklimat.ru

Погода и климат >> Архив погоды >> Израиль >> Израильский мет сервис


ПОГОДА в Израильском мет сервисе

  • Прогноз погоды в Израильском мет сервисе
  • Монитор погоды в Израильском мет сервисе

АРХИВ ПОГОДЫ в Израильском мет сервисе

Время (UTC), дата Ветер
(напр.,м/с)
 
Видим.   Явления Облачность Т
(С)
Тd
(С)
f
(%)
Тe
(С)
Тes
(С)
Комфортность P
(гПа)
Po
(гПа)
Тmin
(С)
Tmax
(С)
R
(мм)
R24
(мм)
S
(см)
12 10.08 З 3 10 км 3/3 600 м
[Cu hum]
+31.7 +20.0 50 +38 +47 очень
душно
1006.0 1002.5
15 10.08 СЗ 2 10 км 3/3 600 м
[Cu hum]
+29.4 +21.2 61 +37 +38 очень
душно
1006.0 1002.5
18 10.08 ЮЗ 1 10 км 3/3 600 м
[Cu hum]
+27.2 +21.1 69 +34 +34 очень
душно
1006.8 1003.3 +27.1 +32.1
21 10.08 Ю 1 10 км 5/5 600 м
[Cu hum]
+24.9 +20.5 77 +31 +31 очень
душно
1006.8 1003.2
00 11.08 Ю 1 10 км 5/5 600 м
[Cu hum]
+24.6 +20.7 79 +31 +31 очень
душно
1006.2 1002.6
03 11.08 Ю 1 10 км 1/1 600 м
[Cu hum]
+23.0 +19.6 81 +30 +30 очень
душно
1006.2 1002.6
06 11.08 ЮЗ 2 10 км 4/4 300 м
[Sc diur, vesp]
+26.8 +21.2 71 +34 +39 очень
душно
1006.7 1003.2 +22.8 +27.1
09 11.08 З 2 10 км ясно +31.2 +20.4 53 +38 +59 опасность
солнечного
удара
1006.8 1003.3
12 11.08 З 2 10 км ясно +31.4 +20.5 52 +38 +52 опасность
солнечного
удара
1006.1 1002.6
15 11.08 СЗ 2 10 км 1/1 300 м
[Cu hum]
+29.9 +21.0 59 +37 +39 очень
душно
1005.7 1002.2
18 11.08 С 1 10 км ясно +27.5 +21.5 70 +35 +35 очень
душно
1006.4 1002.9 +26.8 +32.0
21 11.08 штиль 0 10 км ясно +24.6 +20.4 77 +30 +30 очень
душно
1006.7 1003.1
00 12.08 В 1 10 км ясно +22.9 +19.6 82 +29 +29 очень
душно
1006.0 1002.4
03 12.08 ЮВ 1 10 км 1/1 300 м
[St]
+20.9 +15.9 73 +25 +25 комфорт 1006.2 1002.6
06 12.08 Ю 1 15 км ясно +27.2 +19.8 64 +33 +42 очень
душно
1006.6 1003.1 +20.7 +27.4
09 12.08 З 2 20 км ясно +32.2 +18.5 44 +37 +58 опасность
солнечного
удара
1006.3 1002.8
12 12.08 З 2 20 км ясно +32.5 +19.9 47 +38 +53 опасность
солнечного
удара
1005.9 1002.4
15 12.08 СЗ 2 10 км ясно +31.1 +17.7 45 +35 +37 очень
душно
1005.2 1001.7
18 12.08 СВ 1 10 км ясно +27.6 +19.9 63 +34 +34 очень
душно
1005.7 1002.2 +27.4 +33.6
21 12.08 В 1 10 км ясно +23.5 +18.2 72 +28 +28 душно 1005.6 1002.0
00 13.08 ЮЗ 1 10 км ясно +21.8 +17.7 78 +26 +26 душно 1005.5 1001.9
03 13.08 ЮВ 1 10 км ясно +19.7 +11.4 59 +23 +23 комфорт 1005.9 1002.3
06 13.08 ЮЗ 1 20 км ясно +28.3 +15.2 45 +31 +41 душно 1006.3 1002.8 +19.5 +28.5
09 13.08 З 2 20 км ясно +32.0 +21.5 54 +40 +61 опасность
солнечного
удара
1006.3 1002.8
12 13.08 СЗ 2 20 км ясно +32.6 +20.6 49 +39 +55 опасность
солнечного
удара
1005.6 1002.1
15 13.08 СЗ 2 20 км ясно +31.4 +17.7 44 +36 +37 очень
душно
1005.5 1002.0
18 13.08 СВ 1 10 км ясно +28.1 +22.2 70 +37 +37 очень
душно
1006.1 1002.6 +28.1 +33.4
21 13.08 СВ 1 10 км ясно +25.9 +21.9 79 +33 +33 очень
душно
1006.5 1002.9
00 14.08 ЮЗ 1 10 км 4/4 300 м
[St]
+24.1 +20.5 80 +30 +30 очень
душно
1006.3 1002.7
03 14.08 Ю 1 10 км 4/3 600 м
[Cu hum Ac trans]
+23.8 +19.8 78 +29 +29 душно 1007.2 1003.6
06 14.08 Ю 2 10 км 3/3 600 м
[Cu hum]
+28.3 +22.4 70 +37 +43 очень
душно
1007.7 1004.2 +23.7 +28.5
09 14.08 З 2 10 км 1/1 600 м
[Cu hum]
+32.0 +21.8 55 +41 +58 опасность
перегрева
1007.5 1004.0
12 14.08 З 3 10 км ясно +32.4 +21.0 51 +40 +53 опасность
солнечного
удара
1007.2 1003.7
15 14.08 СЗ 2 10 км ясно +30.0 +21.4 60 +38 +40 очень
душно
1007.7 1004.2
18 14.08 СЗ 1 10 км ясно +27.6 +22.0 72 +36 +36 очень
душно
1008.1 1004.6 +27.6 +33.1
21 14.08 З 1 10 км 5/5 600 м
[Cu hum]
+26.9 +21.5 72 +34 +34 очень
душно
1008.5 1004.9
00 15.08 Ю 2 10 км 4/4 600 м
[Sc]
+25.1 +20.8 77 +31 +31 очень
душно
1008.5 1004.9
03 15.08 Ю 1 10 км 1/1 600 м
[Cu hum]
+24.2 +21.0 82 +30 +30 очень
душно
1008.1 1004.5
06 15.08 Ю 1 15 км ясно +29.9 +17.6 48 +34 +44 очень
душно
1008.0 1004.5 +24.0 +30.3
09 15.08 З 3 20 км ясно +31.8 +20.1 50 +38 +56 опасность
солнечного
удара
1009.2 1005.7
12 15.08 С 2 20 км ясно +32.8 +17.4 40 +37 +51 опасность
солнечного
удара
1008.6 1005.1
15 15.08 С 2 20 км ясно +33.0 +15.7 35 +35 +37 душно 1007.8 1004.3
18 15.08 СВ 1 10 км ясно +29.0 +16.2 46 +32 +32 душно 1008.3 1004.8 +28.9 +33.9
21 15.08 В 1 10 км ясно +25.3 +15.2 54 +28 +28 жарко 1007.8 1004.2
00 16.08 Ю 1 10 км ясно +23.3 +11.7 48 +26 +26 жарко 1007.0 1003.4
03 16.08 В 1 10 км ясно +21.8 +12.3 55 +24 +24 комфорт 1007.6 1004.0
06 16.08 СВ 1 20 км ясно +32.0 +11.6 29 +32 +42 жарко 1007.9 1004.4 +21.4 +32.4
09 16.08 СЗ 2 10 км ясно +34.1 +19.8 43 +40 +59 опасность
солнечного
удара
1007.9 1004.4
12 16.08 СЗ 3 20 км ясно +34.2 +15.4 32 +36 +49 душно 1007.7 1004.2
15 16.08 СЗ 2 20 км ясно +32.2 +16.6 39 +35 +37 очень
душно
1007.4 1003.9
18 16.08 С 1 10 км ясно +27.9 +21.7 69 +36 +36 очень
душно
1008.3 1004.8 +27.9 +35.1
21 16.08 СЗ 1 10 км ясно +26.0 +20.6 72 +32 +32 очень
душно
1008.8 1005.2
00 17.08 Ю 1 10 км 1/1 600 м
[Cu hum]
+24.2 +20.7 81 +30 +30 очень
душно
1008.3 1004.7
03 17.08 Ю 1 10 км 5/5 600 м
[Cu hum]
+24.1 +20.0 78 +30 +30 очень
душно
1008.7 1005.1
06 17.08 ЮЗ 1 10 км 6/6 600 м
[Cu hum]
+28.3 +21.6 67 +36 +40 очень
душно
1009.3 1005.8 +23.7 +29.0
09 17.08 З 2 10 км 5/5 600 м
[Cu hum]
+31.5 +20.8 53 +39 +48 очень
душно
1009.3 1005.8

 

Местоположение метеостанции Израильский мет сервис (Израиль): широта 32.00 долгота 34.82 высота над уровнем моря 35 м.

В архиве по умолчанию представлена погода в Израильском мет сервисе за последнюю неделю. Архивные данные за месяц целиком и за предыдущие месяцы, начиная с января 2011 года, Вы можете получить, выбрав интересующий диапазон дат из раскрывающегося списка и нажав кнопку "Ввод!".


*Определитесь, кто Вы:
робот инопланетянин человек

Внимание! Время в таблицах - всемирное. Для получения местного времени необходимо прибавить поправку, которая равна 2 ч.

Смотрите также архив погоды в соседних городах и на ближайших метеорологических станциях:

Погода в Тель-Авиве (Израиль) (12 км)
Погода в Иерусалиме (Израиль) (46 км)
Погода в Ашкелон порту (Израиль) (49 км)
Погода в Хадера порту (Израиль) (53 км)
Погода в Беэр-Шева (Израиль) (83 км)
Погода в Афеке (Израиль) (98 км)
Погода в Аммане (Иордания) (109 км)
Погода в Капернауме (Израиль) (110 км)
Погода в Аэропорту Королева Алия (Иордания) (114 км)
Погода в Ирбиде (Иордания) (115 км)

Пояснения к столбцам:

Ветер - указаны скорость ветра в м/с - средняя за 10 мин, порывы в срок и между сроками (в фигурных скобках) и направление, откуда дует ветер: С - северный, СВ - северо-восточный, В - восточный, ЮВ - юго-восточный, Ю - южный, ЮЗ - юго-западный, З - западный, СЗ - северо-западный.
Видимость - горизонтальная дальность видимости в метрах или километрах. При видимости от 1 до 10 км при отсутствии осадков обычно наблюдается дымка, при ухудшении видимости до 1 км и менее - туман. В сухую погоду видимость может ухудшаться дымом, пылью или мглою.
Явления - указаны атмосферные явления, наблюдавшиеся в срок или в последний час перед сроком; фигурными скобками обозначены явления, наблюдавшиеся между сроками (за 1-3 часа до срока); квадратными скобками обозначены град или гололедные отложения с указанием их диаметра в мм.
Облачность - указаны через наклонную черту общая и нижняя облачность в баллах и высота нижней границы облаков в метрах; квадратными скобками обозначены формы облаков: Ci - перистые, Cs - перисто-слоистые, Cc - перисто-кучевые, Ac - высококучевые, As - высокослоистые, Sc - слоисто-кучевые, Ns - слоисто-дождевые, Cu - кучевые, Cb - кучево-дождевые. Подробнее классификацию облаков см. в Атласе облаков (PDF).
T - Температура воздуха - температура, измеренная на высоте 2 м над землей.
Td - Температура точки росы - температура, при понижении до которой содержащийся в воздухе водяной пар достигнет насыщения.
f - Относительная влажность воздуха - влажноcть воздуха, измеренная на высоте 2 м над землей.
Te - Эффективная температура - температура, которую ощущает одетый по сезону человек в тени. Характеристика душности погоды. При расчете учитывается влияние влажности воздуха и скорости ветра на теплоощущения человека.
Tes - Эффективная температура на солнце - температура, которую ощущает человек, с поправкой на солнечный нагрев. Характеристика знойности погоды. Зависит от высоты солнца над горизонтом, облачности и скорости ветра. Ночью, в пасмурную погоду, а также при ветре 12 м/с и более поправка равна нулю.
P - Атмосферное давление - приведенное к уровню моря атмосферное давление.
Po - Атмосферное давление - измеренное на уровне метеостанции атмосферное давление.
Tmin - Минимальная температура - минимум температуры воздуха на высоте 2 м над землей.
Tmax - Максимальная температура - максимум температуры воздуха на высоте 2 м над землей.
R - Количество осадков - Количество выпавших осадков за период времени, мм. При наведении курсора мыши на число - период времени, за который выпало указанное количество осадков.
R24 - Количество осадков - Количество выпавших осадков за 24 часа, мм.
S - Снежный покров - Высота снежного покрова, см. При наведении курсора мыши на число - состояние снежного покрова и степень покрытия местности в баллах.